Location: Street
(51.1247°N, 2.7429°W)
Time: 10:47:57
(UTC+00:00)

Tiros 1 - Pass Details

Date: 28 November 2020
Orbit: 630 x 663 km, 48.4° (Epoch: 21 January)

Event Time Altitude Azimuth Distance (km) Brightness Sun altitude
Rises 14:44:37 0° 193° (SSW) 2,983 11.9 8.8°
Reaches altitude 10° 14:48:03 10° 168° (SSE) 2,074 10.4 8.5°
Maximum altitude 14:50:25 14° 138° (SE) 1,837 9.7 8.3°
Drops below altitude 10° 14:52:47 10° 109° (ESE) 2,076 9.6 8.0°
Sets 14:56:12 0° 83° (E) 2,987 10.1 7.7°
